Time,TemperatureF,DewpointF,PressureIn,WindDirection,WindDirectionDegrees,WindSpeedMPH,WindSpeedGustMPH,Humidity,HourlyPrecipIn,Conditions,Clouds,dailyrainin,SoftwareType,DateUTC
2013-08-11 00:01:00,77.6,74.1,30.03,NNW,333,0.0,0.0,89,0.00,,,0.13,WUHU216DAVISVP2,2013-08-11 04:01:00,
2013-08-11 00:06:00,77.6,74.1,30.03,NNW,333,0.0,0.0,89,0.00,,,0.13,WUHU216DAVISVP2,2013-08-11 04:06:00,
2013-08-11 00:11:00,77.4,73.9,30.03,NNW,333,0.0,0.0,89,0.00,,,0.00,WUHU216DAVISVP2,2013-08-11 04:11:00,
2013-08-11 00:16:00,77.6,74.1,30.03,NNW,333,0.0,0.0,89,0.00,,,0.00,WUHU216DAVISVP2,2013-08-11 04:16:00,
2013-08-11 00:21:00,77.6,74.1,30.03,NNW,333,0.0,0.0,89,0.00,,,0.00,WUHU216DAVISVP2,2013-08-11 04:21:00,
2013-08-11 00:26:00,77.4,73.9,30.03,NNW,333,0.0,0.0,89,0.00,,,0.00,WUHU216DAVISVP2,2013-08-11 04:26:00,
2013-08-11 00:31:00,77.4,73.9,30.03,NNW,333,0.0,0.0,89,0.00,,,0.00,WUHU216DAVISVP2,2013-08-11 04:31:00,
2013-08-11 00:36:00,77.4,73.9,30.03,NNW,333,0.0,0.0,89,0.00,,,0.00,WUHU216DAVISVP2,2013-08-11 04:36:00,
2013-08-11 00:41:00,77.4,73.9,30.03,NNW,333,0.0,0.0,89,0.00,,,0.00,WUHU216DAVISVP2,2013-08-11 04:41:00,
2013-08-11 00:46:00,77.2,73.7,30.03,NNW,333,0.0,0.0,89,0.00,,,0.00,WUHU216DAVISVP2,2013-08-11 04:46:00,
2013-08-11 00:51:00,77.2,73.7,30.03,NNW,333,0.0,0.0,89,0.00,,,0.00,WUHU216DAVISVP2,2013-08-11 04:51:00,
2013-08-11 00:56:00,77.2,73.7,30.02,NNW,333,0.0,0.0,89,0.00,,,0.00,WUHU216DAVISVP2,2013-08-11 04:56:00,
2013-08-11 01:01:00,77.2,73.7,30.02,NNW,333,0.0,0.0,89,0.00,,,0.00,WUHU216DAVISVP2,2013-08-11 05:01:00,
2013-08-11 01:07:00,77.2,73.7,30.02,NNW,333,0.0,0.0,89,0.00,,,0.00,WUHU216DAVISVP2,2013-08-11 05:07:00,
2013-08-11 01:12:00,77.0,73.5,30.02,NNW,333,0.0,0.0,89,0.00,,,0.00,WUHU216DAVISVP2,2013-08-11 05:12:00,
2013-08-11 01:17:00,77.2,73.7,30.02,NNW,333,0.0,0.0,89,0.00,,,0.00,WUHU216DAVISVP2,2013-08-11 05:17:00,
2013-08-11 01:22:00,76.8,73.3,30.02,NNW,333,0.0,0.0,89,0.00,,,0.00,WUHU216DAVISVP2,2013-08-11 05:22:00,
2013-08-11 01:27:00,76.8,73.3,30.02,NNW,333,0.0,0.0,89,0.00,,,0.00,WUHU216DAVISVP2,2013-08-11 05:27:00,
2013-08-11 01:32:00,77.0,73.5,30.02,NNW,333,0.0,0.0,89,0.00,,,0.00,WUHU216DAVISVP2,2013-08-11 05:32:00,
2013-08-11 01:37:00,76.7,73.2,30.02,NNW,333,0.0,0.0,89,0.00,,,0.00,WUHU216DAVISVP2,2013-08-11 05:37:00,
2013-08-11 01:42:00,76.7,73.2,30.02,NNW,333,0.0,0.0,89,0.00,,,0.00,WUHU216DAVISVP2,2013-08-11 05:42:00,
2013-08-11 01:47:00,76.8,73.3,30.02,NNW,333,0.0,0.0,89,0.00,,,0.00,WUHU216DAVISVP2,2013-08-11 05:47:00,
2013-08-11 01:52:00,76.7,73.5,30.02,NNW,333,0.0,0.0,90,0.00,,,0.00,WUHU216DAVISVP2,2013-08-11 05:52:00,
2013-08-11 01:58:00,76.7,73.5,30.02,NNW,333,0.0,0.0,90,0.00,,,0.00,WUHU216DAVISVP2,2013-08-11 05:58:00,
2013-08-11 02:03:00,76.5,73.3,30.02,NNW,333,0.0,0.0,90,0.00,,,0.00,WUHU216DAVISVP2,2013-08-11 06:03:00,
2013-08-11 02:08:00,76.5,73.3,30.02,NNW,333,0.0,0.0,90,0.00,,,0.00,WUHU216DAVISVP2,2013-08-11 06:08:00,
2013-08-11 02:13:00,76.5,73.3,30.02,NNW,333,0.0,0.0,90,0.00,,,0.00,WUHU216DAVISVP2,2013-08-11 06:13:00,
2013-08-11 02:18:00,76.7,73.5,30.02,NNW,333,0.0,0.0,90,0.00,,,0.00,WUHU216DAVISVP2,2013-08-11 06:18:00,
2013-08-11 02:23:00,76.5,73.3,30.01,NNW,333,0.0,0.0,90,0.00,,,0.00,WUHU216DAVISVP2,2013-08-11 06:23:00,
2013-08-11 02:28:00,76.5,73.3,30.01,NNW,333,0.0,0.0,90,0.00,,,0.00,WUHU216DAVISVP2,2013-08-11 06:28:00,
2013-08-11 02:33:00,76.3,73.1,30.01,NNW,333,0.0,0.0,90,0.00,,,0.00,WUHU216DAVISVP2,2013-08-11 06:33:00,
2013-08-11 02:38:00,76.3,73.1,30.01,NNW,333,0.0,0.0,90,0.00,,,0.00,WUHU216DAVISVP2,2013-08-11 06:38:00,
2013-08-11 02:44:00,76.3,73.1,30.01,NNW,333,0.0,0.0,90,0.00,,,0.00,WUHU216DAVISVP2,2013-08-11 06:44:00,
2013-08-11 02:49:00,76.5,73.3,30.01,NNW,333,0.0,0.0,90,0.00,,,0.00,WUHU216DAVISVP2,2013-08-11 06:49:00,
2013-08-11 02:54:00,76.5,73.3,30.01,NNW,333,0.0,0.0,90,0.00,,,0.00,WUHU216DAVISVP2,2013-08-11 06:54:00,
2013-08-11 02:59:00,76.3,73.1,30.01,NNW,333,0.0,0.0,90,0.00,,,0.00,WUHU216DAVISVP2,2013-08-11 06:59:00,
2013-08-11 03:04:00,76.3,73.1,30.01,NNW,333,0.0,0.0,90,0.00,,,0.00,WUHU216DAVISVP2,2013-08-11 07:04:00,
2013-08-11 03:10:00,76.3,73.1,30.02,NNW,333,0.0,0.0,90,0.00,,,0.00,WUHU216DAVISVP2,2013-08-11 07:10:00,
2013-08-11 03:15:00,76.1,72.9,30.02,NNW,333,0.0,0.0,90,0.00,,,0.00,WUHU216DAVISVP2,2013-08-11 07:15:00,
2013-08-11 03:20:00,76.1,73.0,30.02,NNW,333,0.0,0.0,90,0.00,,,0.00,WUHU216DAVISVP2,2013-08-11 07:20:00,
2013-08-11 03:26:00,76.5,73.3,30.02,NNW,333,0.0,0.0,90,0.00,,,0.00,WUHU216DAVISVP2,2013-08-11 07:26:00,
2013-08-11 03:31:00,76.1,72.9,30.02,NNW,333,0.0,0.0,90,0.00,,,0.00,WUHU216DAVISVP2,2013-08-11 07:31:00,
2013-08-11 03:36:00,76.1,72.9,30.02,NNW,333,0.0,0.0,90,0.00,,,0.00,WUHU216DAVISVP2,2013-08-11 07:36:00,
2013-08-11 03:41:00,76.1,72.9,30.03,NNW,333,0.0,0.0,90,0.00,,,0.00,WUHU216DAVISVP2,2013-08-11 07:41:00,
2013-08-11 03:46:00,76.1,72.9,30.03,NNW,333,0.0,0.0,90,0.00,,,0.00,WUHU216DAVISVP2,2013-08-11 07:46:00,
2013-08-11 03:51:00,76.3,73.1,30.03,NNW,333,0.0,0.0,90,0.00,,,0.00,WUHU216DAVISVP2,2013-08-11 07:51:00,
2013-08-11 03:56:00,76.5,73.3,30.03,NNW,333,0.0,0.0,90,0.00,,,0.00,WUHU216DAVISVP2,2013-08-11 07:56:00,
2013-08-11 04:01:00,76.7,73.5,30.03,NNW,333,0.0,0.0,90,0.00,,,0.00,WUHU216DAVISVP2,2013-08-11 08:01:00,
2013-08-11 04:07:00,76.3,73.1,30.03,NNW,333,0.0,0.0,90,0.00,,,0.00,WUHU216DAVISVP2,2013-08-11 08:07:00,
2013-08-11 04:12:00,76.3,73.1,30.03,NNW,333,0.0,0.0,90,0.00,,,0.00,WUHU216DAVISVP2,2013-08-11 08:12:00,
2013-08-11 04:17:00,76.5,73.3,30.03,NNW,333,0.0,0.0,90,0.00,,,0.00,WUHU216DAVISVP2,2013-08-11 08:17:00,
2013-08-11 04:22:00,76.3,73.1,30.03,NNW,333,0.0,0.0,90,0.00,,,0.00,WUHU216DAVISVP2,2013-08-11 08:22:00,
2013-08-11 04:28:00,76.3,73.1,30.03,NNW,333,0.0,0.0,90,0.00,,,0.00,WUHU216DAVISVP2,2013-08-11 08:28:00,
2013-08-11 04:33:00,76.1,72.9,30.03,NNW,333,0.0,0.0,90,0.00,,,0.00,WUHU216DAVISVP2,2013-08-11 08:33:00,
2013-08-11 04:38:00,76.3,73.1,30.03,NNW,333,0.0,0.0,90,0.00,,,0.00,WUHU216DAVISVP2,2013-08-11 08:38:00,
2013-08-11 04:43:00,76.0,72.8,30.03,NNW,333,0.0,0.0,90,0.00,,,0.00,WUHU216DAVISVP2,2013-08-11 08:43:00,
2013-08-11 04:48:00,76.0,72.8,30.03,NNW,333,0.0,0.0,90,0.00,,,0.00,WUHU216DAVISVP2,2013-08-11 08:48:00,
2013-08-11 04:53:00,76.1,73.0,30.03,NNW,333,0.0,0.0,90,0.00,,,0.00,WUHU216DAVISVP2,2013-08-11 08:53:00,
2013-08-11 04:58:00,76.1,72.9,30.03,NNW,333,0.0,0.0,90,0.00,,,0.00,WUHU216DAVISVP2,2013-08-11 08:58:00,
2013-08-11 05:03:00,76.0,72.9,30.03,NNW,333,0.0,0.0,90,0.00,,,0.00,WUHU216DAVISVP2,2013-08-11 09:03:00,
2013-08-11 05:09:00,76.1,72.9,30.03,NNW,333,0.0,0.0,90,0.00,,,0.00,WUHU216DAVISVP2,2013-08-11 09:09:00,
2013-08-11 05:14:00,76.0,73.2,30.03,NNW,333,0.0,0.0,91,0.00,,,0.00,WUHU216DAVISVP2,2013-08-11 09:14:00,
2013-08-11 05:19:00,76.3,73.5,30.03,NNW,333,0.0,0.0,91,0.00,,,0.00,WUHU216DAVISVP2,2013-08-11 09:19:00,
2013-08-11 05:24:00,76.1,73.3,30.03,NNW,333,0.0,0.0,91,0.00,,,0.00,WUHU216DAVISVP2,2013-08-11 09:24:00,
2013-08-11 05:29:00,76.7,73.9,30.03,NNW,333,0.0,0.0,91,0.00,,,0.00,WUHU216DAVISVP2,2013-08-11 09:29:00,
2013-08-11 05:34:00,76.3,73.5,30.03,NNW,333,0.0,0.0,91,0.00,,,0.00,WUHU216DAVISVP2,2013-08-11 09:34:00,
2013-08-11 05:40:00,76.5,73.7,30.03,NNW,333,0.0,0.0,91,0.00,,,0.00,WUHU216DAVISVP2,2013-08-11 09:40:00,
2013-08-11 05:45:00,76.5,73.7,30.03,NNW,333,0.0,0.0,91,0.00,,,0.00,WUHU216DAVISVP2,2013-08-11 09:45:00,
2013-08-11 05:50:00,76.8,74.0,30.03,NNW,333,0.0,0.0,91,0.00,,,0.00,WUHU216DAVISVP2,2013-08-11 09:50:00,
2013-08-11 05:55:00,77.0,74.2,30.04,NNW,333,0.0,0.0,91,0.00,,,0.00,WUHU216DAVISVP2,2013-08-11 09:55:00,
2013-08-11 06:00:00,76.8,74.0,30.04,NNW,333,0.0,0.0,91,0.00,,,0.00,WUHU216DAVISVP2,2013-08-11 10:00:00,
2013-08-11 06:06:00,76.7,73.9,30.04,NNW,333,0.0,0.0,91,0.00,,,0.00,WUHU216DAVISVP2,2013-08-11 10:06:00,
2013-08-11 06:11:00,76.5,73.7,30.04,NNW,333,0.0,0.0,91,0.00,,,0.00,WUHU216DAVISVP2,2013-08-11 10:11:00,
2013-08-11 06:16:00,76.5,73.7,30.04,NNW,333,0.0,0.0,91,0.00,,,0.00,WUHU216DAVISVP2,2013-08-11 10:16:00,
2013-08-11 06:21:00,76.5,73.7,30.04,NNW,333,0.0,0.0,91,0.00,,,0.00,WUHU216DAVISVP2,2013-08-11 10:21:00,
2013-08-11 06:27:00,77.0,74.2,30.05,NNW,333,0.0,0.0,91,0.00,,,0.00,WUHU216DAVISVP2,2013-08-11 10:27:00,
2013-08-11 06:32:00,76.5,73.7,30.05,NNW,333,0.0,0.0,91,0.00,,,0.00,WUHU216DAVISVP2,2013-08-11 10:32:00,
2013-08-11 06:37:00,77.0,74.2,30.05,NNW,333,0.0,0.0,91,0.00,,,0.00,WUHU216DAVISVP2,2013-08-11 10:37:00,
2013-08-11 06:42:00,76.5,73.7,30.05,NNW,333,0.0,0.0,91,0.00,,,0.00,WUHU216DAVISVP2,2013-08-11 10:42:00,
2013-08-11 06:47:00,76.5,73.7,30.05,NNW,333,0.0,0.0,91,0.00,,,0.00,WUHU216DAVISVP2,2013-08-11 10:47:00,
2013-08-11 06:53:00,76.3,73.5,30.05,NNW,333,0.0,0.0,91,0.00,,,0.00,WUHU216DAVISVP2,2013-08-11 10:53:00,
2013-08-11 06:58:00,76.7,73.9,30.06,NNW,333,0.0,0.0,91,0.00,,,0.00,WUHU216DAVISVP2,2013-08-11 10:58:00,
2013-08-11 07:03:00,76.7,73.9,30.06,NNW,333,0.0,0.0,91,0.00,,,0.00,WUHU216DAVISVP2,2013-08-11 11:03:00,
2013-08-11 07:08:00,77.0,74.2,30.06,NNW,333,0.0,0.0,91,0.00,,,0.00,WUHU216DAVISVP2,2013-08-11 11:08:00,
2013-08-11 07:13:00,76.5,73.7,30.05,NNW,333,0.0,0.0,91,0.00,,,0.00,WUHU216DAVISVP2,2013-08-11 11:13:00,
2013-08-11 07:18:00,76.5,73.7,30.05,NNW,333,0.0,0.0,91,0.00,,,0.00,WUHU216DAVISVP2,2013-08-11 11:18:00,
2013-08-11 07:23:00,76.7,73.9,30.06,NNW,333,0.0,0.0,91,0.00,,,0.00,WUHU216DAVISVP2,2013-08-11 11:23:00,
2013-08-11 07:29:00,76.8,74.0,30.06,NNW,333,0.0,0.0,91,0.00,,,0.00,WUHU216DAVISVP2,2013-08-11 11:29:00,
2013-08-11 07:34:00,76.7,73.9,30.06,NNW,333,0.0,0.0,91,0.00,,,0.00,WUHU216DAVISVP2,2013-08-11 11:34:00,
2013-08-11 07:39:00,76.7,73.9,30.06,NNW,333,0.0,0.0,91,0.00,,,0.00,WUHU216DAVISVP2,2013-08-11 11:39:00,
2013-08-11 07:44:00,76.8,74.0,30.06,NNW,333,0.0,0.0,91,0.00,,,0.00,WUHU216DAVISVP2,2013-08-11 11:44:00,
2013-08-11 07:49:00,77.0,74.2,30.06,NNW,333,0.0,0.0,91,0.00,,,0.00,WUHU216DAVISVP2,2013-08-11 11:49:00,
2013-08-11 07:55:00,77.4,74.6,30.06,NNW,333,0.0,0.0,91,0.00,,,0.00,WUHU216DAVISVP2,2013-08-11 11:55:00,
2013-08-11 08:00:00,77.6,74.7,30.06,NNW,333,0.0,0.0,91,0.00,,,0.00,WUHU216DAVISVP2,2013-08-11 12:00:00,
2013-08-11 08:05:00,77.6,74.7,30.06,NNW,333,0.0,0.0,91,0.00,,,0.00,WUHU216DAVISVP2,2013-08-11 12:05:00,
2013-08-11 08:10:00,77.6,74.7,30.06,NNW,333,0.0,0.0,91,0.00,,,0.00,WUHU216DAVISVP2,2013-08-11 12:10:00,
2013-08-11 08:15:00,77.7,74.8,30.06,NNW,333,0.0,0.0,91,0.00,,,0.00,WUHU216DAVISVP2,2013-08-11 12:15:00,
2013-08-11 08:21:00,77.6,74.7,30.06,NNW,333,0.0,0.0,91,0.00,,,0.00,WUHU216DAVISVP2,2013-08-11 12:21:00,
2013-08-11 08:26:00,77.6,74.7,30.06,NNW,333,0.0,0.0,91,0.00,,,0.00,WUHU216DAVISVP2,2013-08-11 12:26:00,
2013-08-11 08:31:00,78.1,75.2,30.06,NNW,333,0.0,0.0,91,0.00,,,0.00,WUHU216DAVISVP2,2013-08-11 12:31:00,
2013-08-11 08:36:00,77.9,75.0,30.06,NNW,333,0.0,0.0,91,0.00,,,0.00,WUHU216DAVISVP2,2013-08-11 12:36:00,
2013-08-11 08:41:00,77.9,75.0,30.06,NNW,333,0.0,0.0,91,0.00,,,0.00,WUHU216DAVISVP2,2013-08-11 12:41:00,
2013-08-11 08:46:00,78.3,75.4,30.06,NNW,333,0.0,0.0,91,0.00,,,0.00,WUHU216DAVISVP2,2013-08-11 12:46:00,
2013-08-11 08:51:00,77.9,75.0,30.06,NNW,332,0.0,0.0,91,0.00,,,0.00,WUHU216DAVISVP2,2013-08-11 12:51:00,
2013-08-11 08:58:00,78.3,75.4,30.07,NNW,332,0.0,0.0,91,0.00,,,0.00,WUHU216DAVISVP2,2013-08-11 12:58:00,
2013-08-11 09:04:00,78.1,75.2,30.07,NNW,332,0.0,0.0,91,0.00,,,0.00,WUHU216DAVISVP2,2013-08-11 13:04:00,
2013-08-11 09:09:00,77.9,74.7,30.06,NNW,332,0.0,0.0,90,0.00,,,0.00,WUHU216DAVISVP2,2013-08-11 13:09:00,
2013-08-11 09:15:00,78.3,75.1,30.06,NNW,333,0.0,0.0,90,0.00,,,0.00,WUHU216DAVISVP2,2013-08-11 13:15:00,
2013-08-11 09:20:00,77.9,74.7,30.06,NNW,333,0.0,0.0,90,0.00,,,0.00,WUHU216DAVISVP2,2013-08-11 13:20:00,
2013-08-11 09:25:00,78.1,74.9,30.07,NNW,333,0.0,0.0,90,0.00,,,0.00,WUHU216DAVISVP2,2013-08-11 13:25:00,
2013-08-11 09:30:00,78.3,75.1,30.07,NNW,333,0.0,0.0,90,0.00,,,0.00,WUHU216DAVISVP2,2013-08-11 13:30:00,
2013-08-11 09:36:00,78.1,74.6,30.07,NNW,333,0.0,0.0,89,0.00,,,0.00,WUHU216DAVISVP2,2013-08-11 13:36:00,
2013-08-11 09:41:00,78.5,75.0,30.06,NNW,333,0.0,0.0,89,0.00,,,0.00,WUHU216DAVISVP2,2013-08-11 13:41:00,
2013-08-11 09:46:00,78.8,75.3,30.06,NNW,333,0.0,0.0,89,0.00,,,0.00,WUHU216DAVISVP2,2013-08-11 13:46:00,
2013-08-11 09:51:00,78.6,74.8,30.06,NNW,333,0.0,0.0,88,0.00,,,0.00,WUHU216DAVISVP2,2013-08-11 13:51:00,
2013-08-11 09:56:00,79.0,75.2,30.07,NNW,333,0.0,0.0,88,0.00,,,0.00,WUHU216DAVISVP2,2013-08-11 13:56:00,
2013-08-11 10:01:00,79.4,75.2,30.07,NNW,332,0.0,0.0,87,0.00,,,0.00,WUHU216DAVISVP2,2013-08-11 14:01:00,
2013-08-11 10:07:00,79.8,75.6,30.07,NNW,342,0.0,0.0,87,0.00,,,0.00,WUHU216DAVISVP2,2013-08-11 14:07:00,
2013-08-11 10:12:00,80.3,75.8,30.06,NNW,342,0.0,0.0,86,0.00,,,0.00,WUHU216DAVISVP2,2013-08-11 14:12:00,
2013-08-11 10:17:00,80.5,76.0,30.06,NE,35,0.0,0.0,86,0.00,,,0.00,WUHU216DAVISVP2,2013-08-11 14:17:00,
2013-08-11 10:22:00,80.9,76.0,30.06,ENE,68,0.0,0.0,85,0.00,,,0.00,WUHU216DAVISVP2,2013-08-11 14:22:00,
2013-08-11 10:27:00,81.1,75.9,30.06,NW,306,0.0,0.0,84,0.00,,,0.00,WUHU216DAVISVP2,2013-08-11 14:27:00,
2013-08-11 10:32:00,81.4,76.2,30.06,North,0,0.0,0.0,84,0.00,,,0.00,WUHU216DAVISVP2,2013-08-11 14:32:00,
2013-08-11 10:37:00,82.0,76.8,30.06,NW,322,0.0,0.0,84,0.00,,,0.00,WUHU216DAVISVP2,2013-08-11 14:37:00,
2013-08-11 10:43:00,82.4,76.8,30.06,NW,315,0.0,6.0,83,0.00,,,0.00,WUHU216DAVISVP2,2013-08-11 14:43:00,
2013-08-11 10:48:00,82.8,77.2,30.06,WNW,295,0.0,6.0,83,0.00,,,0.00,WUHU216DAVISVP2,2013-08-11 14:48:00,
2013-08-11 10:53:00,83.0,77.0,30.06,South,189,0.0,4.0,82,0.00,,,0.00,WUHU216DAVISVP2,2013-08-11 14:53:00,
2013-08-11 10:58:00,83.2,76.9,30.06,NNW,337,0.0,2.0,81,0.00,,,0.00,WUHU216DAVISVP2,2013-08-11 14:58:00,
2013-08-11 11:03:00,83.4,76.7,30.06,NNW,343,0.0,2.0,80,0.00,,,0.00,WUHU216DAVISVP2,2013-08-11 15:03:00,
2013-08-11 11:08:00,83.8,77.1,30.06,NNW,343,0.0,0.0,80,0.00,,,0.00,WUHU216DAVISVP2,2013-08-11 15:08:00,
2013-08-11 11:13:00,84.0,77.3,30.06,North,0,0.0,0.0,80,0.00,,,0.00,WUHU216DAVISVP2,2013-08-11 15:13:00,
2013-08-11 11:18:00,84.0,76.9,30.06,NW,325,0.0,0.0,79,0.00,,,0.00,WUHU216DAVISVP2,2013-08-11 15:18:00,
2013-08-11 11:23:00,84.5,77.4,30.06,NW,325,0.0,0.0,79,0.00,,,0.00,WUHU216DAVISVP2,2013-08-11 15:23:00,
2013-08-11 11:28:00,84.9,77.8,30.06,NW,325,0.0,0.0,79,0.00,,,0.00,WUHU216DAVISVP2,2013-08-11 15:28:00,
2013-08-11 11:33:00,84.7,76.9,30.06,NNE,14,0.0,0.0,77,0.00,,,0.00,WUHU216DAVISVP2,2013-08-11 15:33:00,
2013-08-11 11:39:00,85.1,77.6,30.05,NW,306,0.0,0.0,78,0.00,,,0.00,WUHU216DAVISVP2,2013-08-11 15:39:00,
2013-08-11 11:44:00,85.3,77.1,30.05,NW,305,0.0,1.0,76,0.00,,,0.00,WUHU216DAVISVP2,2013-08-11 15:44:00,
2013-08-11 11:49:00,85.7,77.5,30.05,North,0,0.0,1.0,76,0.00,,,0.00,WUHU216DAVISVP2,2013-08-11 15:49:00,
2013-08-11 11:54:00,85.7,77.5,30.05,NW,309,0.0,0.0,76,0.00,,,0.00,WUHU216DAVISVP2,2013-08-11 15:54:00,
2013-08-11 11:59:00,86.1,77.5,30.05,NW,309,0.0,0.0,75,0.00,,,0.00,WUHU216DAVISVP2,2013-08-11 15:59:00,
2013-08-11 12:04:00,86.3,77.4,30.05,NNW,347,0.0,0.0,75,0.00,,,0.00,WUHU216DAVISVP2,2013-08-11 16:04:00,
2013-08-11 12:09:00,86.7,77.6,30.04,West,277,0.0,0.0,74,0.00,,,0.00,WUHU216DAVISVP2,2013-08-11 16:09:00,
2013-08-11 12:15:00,87.0,77.1,30.04,West,277,0.0,0.0,72,0.00,,,0.00,WUHU216DAVISVP2,2013-08-11 16:15:00,
2013-08-11 12:20:00,86.7,76.6,30.04,NNW,344,0.0,0.0,72,0.00,,,0.00,WUHU216DAVISVP2,2013-08-11 16:20:00,
2013-08-11 12:25:00,86.7,76.8,30.04,NW,326,0.0,0.0,72,0.00,,,0.00,WUHU216DAVISVP2,2013-08-11 16:25:00,
2013-08-11 12:30:00,86.5,76.2,30.04,NW,326,0.0,0.0,71,0.00,,,0.00,WUHU216DAVISVP2,2013-08-11 16:30:00,
2013-08-11 12:35:00,87.2,77.3,30.04,NW,326,0.0,0.0,72,0.00,,,0.00,WUHU216DAVISVP2,2013-08-11 16:35:00,
2013-08-11 12:41:00,87.6,76.9,30.03,North,0,0.0,2.0,70,0.00,,,0.00,WUHU216DAVISVP2,2013-08-11 16:41:00,
2013-08-11 12:46:00,87.8,76.8,30.03,NNW,333,0.0,2.0,70,0.00,,,0.00,WUHU216DAVISVP2,2013-08-11 16:46:00,
2013-08-11 12:51:00,88.0,77.0,30.03,North,352,0.0,1.0,70,0.00,,,0.00,WUHU216DAVISVP2,2013-08-11 16:51:00,
2013-08-11 12:56:00,88.2,77.0,30.03,ENE,62,0.0,0.0,69,0.00,,,0.00,WUHU216DAVISVP2,2013-08-11 16:56:00,
2013-08-11 13:01:00,88.2,77.0,30.03,ENE,62,0.0,0.0,69,0.00,,,0.00,WUHU216DAVISVP2,2013-08-11 17:01:00,
2013-08-11 13:06:00,88.4,77.2,30.03,West,278,0.0,0.0,69,0.00,,,0.00,WUHU216DAVISVP2,2013-08-11 17:06:00,
2013-08-11 13:12:00,88.6,76.7,30.02,NW,312,0.0,0.0,68,0.00,,,0.00,WUHU216DAVISVP2,2013-08-11 17:12:00,
2013-08-11 13:17:00,88.6,76.5,30.02,NW,309,0.0,0.0,67,0.00,,,0.00,WUHU216DAVISVP2,2013-08-11 17:17:00,
2013-08-11 13:22:00,88.8,77.2,30.02,NW,309,0.0,0.0,68,0.00,,,0.00,WUHU216DAVISVP2,2013-08-11 17:22:00,
2013-08-11 13:27:00,89.0,76.5,30.02,North,356,2.0,4.0,66,0.00,,,0.00,WUHU216DAVISVP2,2013-08-11 17:27:00,
2013-08-11 13:32:00,89.5,77.4,30.02,North,350,0.0,6.0,67,0.00,,,0.00,WUHU216DAVISVP2,2013-08-11 17:32:00,
2013-08-11 13:37:00,89.3,76.9,30.02,North,359,0.0,4.0,67,0.00,,,0.00,WUHU216DAVISVP2,2013-08-11 17:37:00,
2013-08-11 13:43:00,89.5,77.1,30.02,North,0,0.0,1.0,67,0.00,,,0.00,WUHU216DAVISVP2,2013-08-11 17:43:00,
2013-08-11 13:48:00,89.0,76.0,30.02,North,4,0.0,1.0,65,0.00,,,0.00,WUHU216DAVISVP2,2013-08-11 17:48:00,
2013-08-11 13:53:00,89.3,76.0,30.02,North,0,0.0,0.0,65,0.00,,,0.00,WUHU216DAVISVP2,2013-08-11 17:53:00,
2013-08-11 13:59:00,89.7,77.1,30.02,East,90,0.0,2.0,66,0.00,,,0.00,WUHU216DAVISVP2,2013-08-11 17:59:00,
2013-08-11 14:04:00,89.7,76.2,30.02,East,90,0.0,2.0,64,0.00,,,0.00,WUHU216DAVISVP2,2013-08-11 18:04:00,
2013-08-11 14:09:00,89.9,76.6,30.01,East,90,0.0,0.0,65,0.00,,,0.00,WUHU216DAVISVP2,2013-08-11 18:09:00,
2013-08-11 14:14:00,90.3,77.2,30.01,NNE,18,0.0,4.0,65,0.00,,,0.00,WUHU216DAVISVP2,2013-08-11 18:14:00,
2013-08-11 14:19:00,90.5,76.5,30.01,WNW,288,0.0,4.0,63,0.00,,,0.00,WUHU216DAVISVP2,2013-08-11 18:19:00,
2013-08-11 14:24:00,90.7,77.2,30.00,NNE,21,0.0,4.0,64,0.00,,,0.00,WUHU216DAVISVP2,2013-08-11 18:24:00,
2013-08-11 14:29:00,90.7,76.4,30.00,WNW,292,0.0,4.0,63,0.00,,,0.00,WUHU216DAVISVP2,2013-08-11 18:29:00,
2013-08-11 14:35:00,91.2,77.2,30.00,WNW,301,0.0,4.0,63,0.00,,,0.00,WUHU216DAVISVP2,2013-08-11 18:35:00,
2013-08-11 14:40:00,91.4,76.9,29.99,North,0,0.0,4.0,62,0.00,,,0.00,WUHU216DAVISVP2,2013-08-11 18:40:00,
2013-08-11 14:45:00,91.2,76.7,29.99,NNE,21,0.0,4.0,62,0.00,,,0.00,WUHU216DAVISVP2,2013-08-11 18:45:00,
2013-08-11 14:50:00,90.5,76.0,29.99,NNE,31,0.0,2.0,62,0.00,,,0.00,WUHU216DAVISVP2,2013-08-11 18:50:00,
2013-08-11 14:55:00,90.5,76.0,30.00,NNE,20,0.0,2.0,62,0.00,,,0.00,WUHU216DAVISVP2,2013-08-11 18:55:00,
2013-08-11 15:00:00,90.5,76.0,30.00,North,0,0.0,2.0,62,0.00,,,0.00,WUHU216DAVISVP2,2013-08-11 19:00:00,
2013-08-11 15:06:00,91.0,76.5,30.00,NNW,329,1.0,4.0,62,0.00,,,0.00,WUHU216DAVISVP2,2013-08-11 19:06:00,
2013-08-11 15:11:00,91.2,75.7,29.99,NNW,330,0.0,4.0,60,0.00,,,0.00,WUHU216DAVISVP2,2013-08-11 19:11:00,
2013-08-11 15:16:00,91.2,75.7,29.99,NNW,333,0.0,2.0,60,0.00,,,0.00,WUHU216DAVISVP2,2013-08-11 19:16:00,
2013-08-11 15:21:00,91.4,75.4,29.99,NNW,329,0.0,4.0,59,0.00,,,0.00,WUHU216DAVISVP2,2013-08-11 19:21:00,
2013-08-11 15:26:00,91.0,75.5,29.99,East,100,0.0,4.0,60,0.00,,,0.00,WUHU216DAVISVP2,2013-08-11 19:26:00,
2013-08-11 15:31:00,90.7,74.2,29.99,North,349,0.0,2.0,58,0.00,,,0.00,WUHU216DAVISVP2,2013-08-11 19:31:00,
2013-08-11 15:36:00,90.7,74.7,29.99,East,97,0.0,2.0,59,0.00,,,0.00,WUHU216DAVISVP2,2013-08-11 19:36:00,
2013-08-11 15:41:00,90.7,74.7,29.98,East,97,0.0,2.0,59,0.00,,,0.00,WUHU216DAVISVP2,2013-08-11 19:41:00,
2013-08-11 15:46:00,90.7,74.7,29.98,SSE,164,0.0,0.0,59,0.00,,,0.00,WUHU216DAVISVP2,2013-08-11 19:46:00,
2013-08-11 15:51:00,91.0,74.7,29.98,SSE,164,0.0,0.0,59,0.00,,,0.00,WUHU216DAVISVP2,2013-08-11 19:51:00,
2013-08-11 15:56:00,90.7,73.9,29.98,SSE,160,0.0,0.0,58,0.00,,,0.00,WUHU216DAVISVP2,2013-08-11 19:56:00,
2013-08-11 16:01:00,91.2,74.4,29.98,SSE,160,0.0,0.0,58,0.00,,,0.00,WUHU216DAVISVP2,2013-08-11 20:01:00,
2013-08-11 16:07:00,91.4,75.1,29.98,SSE,160,0.0,0.0,59,0.00,,,0.00,WUHU216DAVISVP2,2013-08-11 20:07:00,
2013-08-11 16:13:00,91.6,76.1,29.98,SSE,154,0.0,0.0,60,0.00,,,0.00,WUHU216DAVISVP2,2013-08-11 20:13:00,
2013-08-11 16:18:00,91.6,75.0,29.98,SSE,154,0.0,0.0,58,0.00,,,0.00,WUHU216DAVISVP2,2013-08-11 20:18:00,
2013-08-11 16:23:00,91.8,74.7,29.98,NE,40,0.0,1.0,57,0.00,,,0.00,WUHU216DAVISVP2,2013-08-11 20:23:00,
2013-08-11 16:29:00,91.8,76.2,29.98,NW,312,0.0,1.0,60,0.00,,,0.00,WUHU216DAVISVP2,2013-08-11 20:29:00,
2013-08-11 16:34:00,91.4,75.4,29.98,NNW,336,0.0,1.0,59,0.00,,,0.00,WUHU216DAVISVP2,2013-08-11 20:34:00,
2013-08-11 16:39:00,91.0,76.0,29.98,SSW,199,0.0,1.0,61,0.00,,,0.00,WUHU216DAVISVP2,2013-08-11 20:39:00,
2013-08-11 16:44:00,91.0,74.2,29.98,ESE,121,0.0,1.0,58,0.00,,,0.00,WUHU216DAVISVP2,2013-08-11 20:44:00,
2013-08-11 16:49:00,91.2,74.7,29.98,ESE,114,0.0,1.0,58,0.00,,,0.00,WUHU216DAVISVP2,2013-08-11 20:49:00,
2013-08-11 16:55:00,91.4,74.8,29.97,East,95,0.0,0.0,58,0.00,,,0.00,WUHU216DAVISVP2,2013-08-11 20:55:00,
2013-08-11 17:00:00,91.6,74.5,29.97,North,10,0.0,4.0,57,0.00,,,0.00,WUHU216DAVISVP2,2013-08-11 21:00:00,
2013-08-11 17:05:00,91.6,75.5,29.97,North,10,0.0,4.0,59,0.00,,,0.00,WUHU216DAVISVP2,2013-08-11 21:05:00,
2013-08-11 17:10:00,91.6,74.5,29.98,North,10,0.0,0.0,57,0.00,,,0.00,WUHU216DAVISVP2,2013-08-11 21:10:00,
2013-08-11 17:15:00,91.8,75.2,29.98,North,10,0.0,0.0,58,0.00,,,0.00,WUHU216DAVISVP2,2013-08-11 21:15:00,
2013-08-11 17:20:00,91.8,74.7,29.98,North,10,0.0,0.0,57,0.00,,,0.00,WUHU216DAVISVP2,2013-08-11 21:20:00,
2013-08-11 17:25:00,91.2,74.1,29.97,WNW,292,0.0,0.0,57,0.00,,,0.00,WUHU216DAVISVP2,2013-08-11 21:25:00,
2013-08-11 17:30:00,90.1,74.6,29.97,WNW,292,0.0,0.0,60,0.00,,,0.00,WUHU216DAVISVP2,2013-08-11 21:30:00,
2013-08-11 17:35:00,89.5,75.1,29.97,WNW,292,0.0,0.0,62,0.00,,,0.00,WUHU216DAVISVP2,2013-08-11 21:35:00,
2013-08-11 17:40:00,89.3,74.9,29.97,WNW,292,0.0,0.0,62,0.00,,,0.00,WUHU216DAVISVP2,2013-08-11 21:40:00,
2013-08-11 17:45:00,89.3,74.4,29.97,NW,308,0.0,2.0,61,0.00,,,0.00,WUHU216DAVISVP2,2013-08-11 21:45:00,
2013-08-11 17:50:00,89.0,74.6,29.97,NW,308,0.0,2.0,62,0.00,,,0.00,WUHU216DAVISVP2,2013-08-11 21:50:00,
2013-08-11 17:55:00,88.8,75.3,29.96,NW,308,0.0,0.0,64,0.00,,,0.00,WUHU216DAVISVP2,2013-08-11 21:55:00,
2013-08-11 18:00:00,88.6,75.6,29.96,NW,308,0.0,0.0,65,0.00,,,0.00,WUHU216DAVISVP2,2013-08-11 22:00:00,
2013-08-11 18:06:00,88.0,75.5,29.96,NW,308,0.0,0.0,66,0.00,,,0.00,WUHU216DAVISVP2,2013-08-11 22:06:00,
2013-08-11 18:11:00,87.6,75.1,29.96,NW,308,0.0,0.0,66,0.00,,,0.00,WUHU216DAVISVP2,2013-08-11 22:11:00,
2013-08-11 18:16:00,86.7,74.4,29.96,NW,308,0.0,0.0,67,0.00,,,0.00,WUHU216DAVISVP2,2013-08-11 22:16:00,
2013-08-11 18:21:00,85.9,74.8,29.96,NW,308,0.0,0.0,69,0.00,,,0.00,WUHU216DAVISVP2,2013-08-11 22:21:00,
2013-08-11 18:26:00,85.7,75.0,29.96,NW,308,0.0,0.0,70,0.00,,,0.00,WUHU216DAVISVP2,2013-08-11 22:26:00,
2013-08-11 18:32:00,85.5,75.3,29.96,NW,308,0.0,0.0,71,0.00,,,0.00,WUHU216DAVISVP2,2013-08-11 22:32:00,
2013-08-11 18:37:00,85.5,75.3,29.96,NW,308,0.0,0.0,71,0.00,,,0.00,WUHU216DAVISVP2,2013-08-11 22:37:00,
2013-08-11 18:42:00,85.3,75.5,29.96,NW,308,0.0,0.0,72,0.00,,,0.00,WUHU216DAVISVP2,2013-08-11 22:42:00,
2013-08-11 18:48:00,85.3,75.5,29.96,NW,308,0.0,0.0,72,0.00,,,0.00,WUHU216DAVISVP2,2013-08-11 22:48:00,
2013-08-11 18:53:00,85.3,75.5,29.96,NW,309,0.0,1.0,72,0.00,,,0.00,WUHU216DAVISVP2,2013-08-11 22:53:00,
2013-08-11 18:58:00,85.1,75.3,29.96,NW,308,0.0,4.0,72,0.00,,,0.00,WUHU216DAVISVP2,2013-08-11 22:58:00,
2013-08-11 19:03:00,84.9,74.9,29.96,NW,308,2.0,4.0,72,0.00,,,0.00,WUHU216DAVISVP2,2013-08-11 23:03:00,
2013-08-11 19:08:00,84.7,74.9,29.97,NW,308,0.0,2.0,72,0.00,,,0.00,WUHU216DAVISVP2,2013-08-11 23:08:00,
2013-08-11 19:14:00,84.3,74.5,29.97,WNW,298,0.0,2.0,72,0.00,,,0.00,WUHU216DAVISVP2,2013-08-11 23:14:00,
2013-08-11 19:19:00,84.1,74.3,29.97,WNW,298,0.0,1.0,72,0.00,,,0.00,WUHU216DAVISVP2,2013-08-11 23:19:00,
2013-08-11 19:25:00,83.8,74.4,29.98,WNW,298,0.0,1.0,73,0.00,,,0.00,WUHU216DAVISVP2,2013-08-11 23:25:00,
2013-08-11 19:30:00,83.6,74.6,29.98,WNW,298,0.0,0.0,74,0.00,,,0.00,WUHU216DAVISVP2,2013-08-11 23:30:00,
2013-08-11 19:35:00,83.4,74.4,29.98,WNW,298,0.0,0.0,74,0.00,,,0.00,WUHU216DAVISVP2,2013-08-11 23:35:00,
2013-08-11 19:40:00,83.2,74.6,29.98,WNW,298,0.0,0.0,75,0.00,,,0.00,WUHU216DAVISVP2,2013-08-11 23:40:00,
2013-08-11 19:45:00,83.0,74.4,29.98,WNW,298,0.0,0.0,75,0.00,,,0.00,WUHU216DAVISVP2,2013-08-11 23:45:00,
2013-08-11 19:50:00,82.8,74.3,29.98,WNW,298,0.0,0.0,75,0.00,,,0.00,WUHU216DAVISVP2,2013-08-11 23:50:00,
2013-08-11 19:55:00,82.6,74.4,29.98,WNW,298,0.0,0.0,76,0.00,,,0.00,WUHU216DAVISVP2,2013-08-11 23:55:00,
2013-08-11 20:01:00,82.4,74.2,29.98,WNW,298,0.0,0.0,76,0.00,,,0.00,WUHU216DAVISVP2,2013-08-12 00:01:00,
2013-08-11 20:06:00,82.2,74.4,29.98,WNW,298,0.0,0.0,77,0.00,,,0.00,WUHU216DAVISVP2,2013-08-12 00:06:00,
2013-08-11 20:11:00,82.0,74.2,29.99,WNW,298,0.0,0.0,77,0.00,,,0.00,WUHU216DAVISVP2,2013-08-12 00:11:00,
2013-08-11 20:16:00,81.8,74.4,29.99,WNW,298,0.0,0.0,78,0.00,,,0.00,WUHU216DAVISVP2,2013-08-12 00:16:00,
2013-08-11 20:21:00,81.6,74.2,29.99,WNW,298,0.0,0.0,78,0.00,,,0.00,WUHU216DAVISVP2,2013-08-12 00:21:00,
2013-08-11 20:26:00,81.2,73.8,29.99,WNW,298,0.0,0.0,78,0.00,,,0.00,WUHU216DAVISVP2,2013-08-12 00:26:00,
2013-08-11 20:31:00,81.1,74.1,29.99,WNW,298,0.0,0.0,79,0.00,,,0.00,WUHU216DAVISVP2,2013-08-12 00:31:00,
2013-08-11 20:37:00,80.9,73.9,29.99,WNW,298,0.0,0.0,79,0.00,,,0.00,WUHU216DAVISVP2,2013-08-12 00:37:00,
2013-08-11 20:42:00,80.7,74.1,29.99,WNW,298,0.0,0.0,80,0.00,,,0.00,WUHU216DAVISVP2,2013-08-12 00:42:00,
2013-08-11 20:47:00,80.5,73.9,29.99,WNW,298,0.0,0.0,80,0.00,,,0.00,WUHU216DAVISVP2,2013-08-12 00:47:00,
2013-08-11 20:52:00,80.3,73.7,29.99,WNW,298,0.0,0.0,80,0.00,,,0.00,WUHU216DAVISVP2,2013-08-12 00:52:00,
2013-08-11 20:57:00,80.1,73.5,29.98,WNW,298,0.0,0.0,80,0.00,,,0.00,WUHU216DAVISVP2,2013-08-12 00:57:00,
2013-08-11 21:02:00,79.9,73.6,29.98,WNW,298,0.0,0.0,81,0.00,,,0.00,WUHU216DAVISVP2,2013-08-12 01:02:00,
2013-08-11 21:08:00,79.9,73.6,29.98,WNW,298,0.0,0.0,81,0.00,,,0.00,WUHU216DAVISVP2,2013-08-12 01:08:00,
2013-08-11 21:13:00,79.9,73.6,29.99,WNW,298,0.0,0.0,81,0.00,,,0.00,WUHU216DAVISVP2,2013-08-12 01:13:00,
2013-08-11 21:18:00,79.8,73.5,29.99,WNW,298,0.0,0.0,81,0.00,,,0.00,WUHU216DAVISVP2,2013-08-12 01:18:00,
2013-08-11 21:23:00,79.8,73.9,29.99,WNW,298,0.0,0.0,82,0.00,,,0.00,WUHU216DAVISVP2,2013-08-12 01:23:00,
2013-08-11 21:28:00,79.6,73.7,29.99,WNW,298,0.0,0.0,82,0.00,,,0.00,WUHU216DAVISVP2,2013-08-12 01:28:00,
2013-08-11 21:33:00,79.6,73.7,29.99,WNW,298,0.0,0.0,82,0.00,,,0.00,WUHU216DAVISVP2,2013-08-12 01:33:00,
2013-08-11 21:39:00,79.6,73.7,29.99,WNW,298,0.0,0.0,82,0.00,,,0.00,WUHU216DAVISVP2,2013-08-12 01:39:00,
2013-08-11 21:44:00,79.6,73.7,29.99,WNW,298,0.0,0.0,82,0.00,,,0.00,WUHU216DAVISVP2,2013-08-12 01:44:00,
2013-08-11 21:49:00,79.6,74.0,29.99,WNW,298,0.0,0.0,83,0.00,,,0.00,WUHU216DAVISVP2,2013-08-12 01:49:00,
2013-08-11 21:54:00,79.4,73.9,29.99,WNW,298,0.0,0.0,83,0.00,,,0.00,WUHU216DAVISVP2,2013-08-12 01:54:00,
2013-08-11 21:59:00,79.4,73.9,29.99,WNW,298,0.0,0.0,83,0.00,,,0.00,WUHU216DAVISVP2,2013-08-12 01:59:00,
2013-08-11 22:04:00,79.2,73.7,29.99,WNW,298,0.0,0.0,83,0.00,,,0.00,WUHU216DAVISVP2,2013-08-12 02:04:00,
2013-08-11 22:09:00,79.2,73.7,29.99,WNW,298,0.0,0.0,83,0.00,,,0.00,WUHU216DAVISVP2,2013-08-12 02:09:00,
2013-08-11 22:14:00,79.2,73.6,29.99,WNW,298,0.0,0.0,83,0.00,,,0.00,WUHU216DAVISVP2,2013-08-12 02:14:00,
2013-08-11 22:19:00,79.0,73.5,29.99,WNW,298,0.0,0.0,83,0.00,,,0.00,WUHU216DAVISVP2,2013-08-12 02:19:00,
2013-08-11 22:24:00,78.8,73.3,29.99,WNW,298,0.0,0.0,83,0.00,,,0.00,WUHU216DAVISVP2,2013-08-12 02:24:00,
2013-08-11 22:29:00,79.0,73.4,29.99,WNW,298,0.0,0.0,83,0.00,,,0.00,WUHU216DAVISVP2,2013-08-12 02:29:00,
2013-08-11 22:34:00,79.0,73.8,29.99,WNW,298,0.0,0.0,84,0.00,,,0.00,WUHU216DAVISVP2,2013-08-12 02:34:00,
2013-08-11 22:39:00,79.0,73.8,30.00,WNW,298,0.0,0.0,84,0.00,,,0.00,WUHU216DAVISVP2,2013-08-12 02:39:00,
2013-08-11 22:44:00,79.0,73.8,30.00,WNW,298,0.0,0.0,84,0.00,,,0.00,WUHU216DAVISVP2,2013-08-12 02:44:00,
2013-08-11 22:49:00,79.2,74.0,30.00,WNW,298,0.0,0.0,84,0.00,,,0.00,WUHU216DAVISVP2,2013-08-12 02:49:00,
2013-08-11 22:55:00,79.0,73.8,30.00,WNW,298,0.0,0.0,84,0.00,,,0.00,WUHU216DAVISVP2,2013-08-12 02:55:00,
2013-08-11 23:00:00,79.0,73.8,30.00,WNW,298,0.0,0.0,84,0.00,,,0.00,WUHU216DAVISVP2,2013-08-12 03:00:00,
2013-08-11 23:05:00,79.0,74.1,30.00,WNW,298,0.0,0.0,85,0.00,,,0.00,WUHU216DAVISVP2,2013-08-12 03:05:00,
2013-08-11 23:10:00,78.8,74.0,29.99,WNW,298,0.0,0.0,85,0.00,,,0.00,WUHU216DAVISVP2,2013-08-12 03:10:00,
2013-08-11 23:15:00,78.8,74.0,29.99,WNW,298,0.0,0.0,85,0.00,,,0.00,WUHU216DAVISVP2,2013-08-12 03:15:00,
2013-08-11 23:20:00,78.8,74.0,29.99,WNW,298,0.0,0.0,85,0.00,,,0.00,WUHU216DAVISVP2,2013-08-12 03:20:00,
2013-08-11 23:25:00,78.8,74.0,29.99,WNW,298,0.0,0.0,85,0.00,,,0.00,WUHU216DAVISVP2,2013-08-12 03:25:00,
2013-08-11 23:31:00,78.6,73.8,29.99,WNW,298,0.0,0.0,85,0.00,,,0.00,WUHU216DAVISVP2,2013-08-12 03:31:00,
2013-08-11 23:36:00,78.6,73.8,29.99,WNW,298,0.0,0.0,85,0.00,,,0.00,WUHU216DAVISVP2,2013-08-12 03:36:00,
2013-08-11 23:41:00,78.6,73.8,29.99,WNW,298,0.0,0.0,85,0.00,,,0.00,WUHU216DAVISVP2,2013-08-12 03:41:00,
2013-08-11 23:46:00,78.6,73.8,29.99,WNW,298,0.0,0.0,85,0.00,,,0.00,WUHU216DAVISVP2,2013-08-12 03:46:00,
2013-08-11 23:51:00,78.6,73.8,29.99,WNW,298,0.0,0.0,85,0.00,,,0.00,WUHU216DAVISVP2,2013-08-12 03:51:00,
2013-08-11 23:56:00,78.6,73.8,30.00,WNW,298,0.0,0.0,85,0.00,,,0.00,WUHU216DAVISVP2,2013-08-12 03:56:00,